User: anonymous   Login
Location: Oberwangen
(47.4286°N, 8.9679°E)
Time: 02:14:21
(UTC+00:00)
Language:

USA 81 - Orbit

View from above orbital plane
View from above orbital plane
View from above satellite
View from above satellite

Ground track
Ground track

The orbit data is extracted from the following two-line orbital elements,

1 21949U 92023A   21248.00263716 0.00000010  00000-0  37709-5 0    08
2 21949  85.0029   0.7763 0000991  86.8437 273.1562 14.31484894    01
Epoch (UTC): 05 September 2021 00:03:47
Eccentricity: 0.0000991
inclination: 85.0029°
perigee height: 786 km
apogee height: 787 km
right ascension of ascending node: 0.7763°
argument of perigee: 86.8437°
revolutions per day: 14.31484894
mean anomaly at epoch: 273.1562°
orbit number at epoch: 0

The dashed part of the orbit path shows where the satellite is in the earth's shadow,  

DLR